Location: Barrio Fuentes
(41.1256°N, 4.2964°W)
Time: 19:10:35
(UTC+00:00)

Daily predictions for brighter satellites

Satellite Brightness Start Highest point End
(mag) Time Altitude Azimuth Time Altitude Azimuth Time Altitude Azimuth
Cosmos 1271 Rocket 2.6 18:31:36 10° N 18:35:21 71° E 18:39:05 10° SSE
H-2A R/B 3.8 18:35:05 10° N 18:38:50 35° WNW 18:42:35 10° SW
Cosmos 1470 Rocket 4.2 18:35:55 10° SSE 18:40:01 36° E 18:44:05 10° NNE
SKYMED 2 4.0 18:35:42 10° N 18:40:03 71° WNW 18:44:21 10° SSW
PSLV R/B 4.2 18:37:11 10° NNE 18:41:07 45° E 18:45:00 10° S
MOS 1 Rocket 4.1 18:36:07 10° N 18:41:09 65° WNW 18:46:25 10° SSW
Cosmos 2360 Rocket 2.8 18:36:59 10° S 18:42:04 36° ESE 18:47:11 10° NE
Cosmos 1602 3.7 18:39:48 10° S 18:43:38 60° E 18:47:29 10° NNE
CZ-4B R/B 1.9 18:42:02 10° N 18:45:02 57° WNW 18:48:04 10° SSW
Okean O Rocket 3.9 18:45:32 10° SSW 18:49:20 29° W 18:53:08 10° NW
Meteor 1-19 Rocket 4.4 18:44:42 10° N 18:50:31 54° ENE 18:56:08 10° SSE
Cosmos 1500 3.9 18:47:27 10° SSE 18:50:46 31° E 18:54:05 10° NNE
Cosmos 2333 Rocket 3.5 18:48:41 10° SE 18:52:27 18° E 18:56:14 10° ENE
IRIS 4.1 18:49:30 10° W 18:52:56 70° SSW 18:55:06 13° ESE
CZ-2D R/B 4.3 18:49:41 10° S 18:53:22 50° W 18:57:06 10° NNW
Meteor 2-4 Rocket 4.4 18:49:40 10° N 18:55:01 35° ENE 19:00:22 10° SE
SL-08 RB Rocket 4.3 18:51:47 10° SE 18:55:49 33° ENE 18:59:54 10° N
Cosmos 1689 Rocket 2.0 18:55:35 10° NNE 18:58:26 56° E 19:01:16 10° S
Cosmos 1933 Rocket 4.0 18:56:52 10° SSE 19:00:54 39° E 19:04:59 10° NNE
SJ-11-01 4.2 18:56:18 10° SSE 19:00:56 72° ENE 19:05:38 10° N
Cosmos 1666 Rocket 4.3 18:58:10 10° SSW 19:02:24 55° W 19:06:40 10° N
BREEZE-M DEB (TANK) 3.9 19:00:35 10° SSW 19:02:40 22° SE 19:03:36 18° ESE
Aureole 2 Rocket 2.3 19:03:19 10° N 19:05:39 32° ENE 19:06:52 20° ESE
Cosmos 1862 Rocket 3.5 19:02:56 10° N 19:07:27 84° E 19:11:55 10° S
CZ-2C R/B 4.4 19:02:08 10° S 19:07:39 47° W 19:13:01 10° NNW
Cosmos 2327 Rocket 4.5 19:02:19 10° S 19:08:40 83° E 19:14:58 10° N
Cosmos 2322 Rocket 2.5 19:06:19 10° SSW 19:11:54 72° WNW 19:17:33 10° NNE
Cosmos 2242 Rocket 4.1 19:09:11 10° N 19:13:22 37° ENE 19:17:30 10° SE
Lacrosse 4 Rocket 2.8 19:11:03 10° SSE 19:14:10 19° ESE 19:14:29 19° E
Abrixas rocket 3.9 19:13:15 10° NW 19:14:54 16° N 19:16:07 12° NNE
Helios 1A Rocket 2.8 19:14:06 10° SSE 19:18:08 69° ENE 19:22:10 10° N
YAOGAN 1 3.0 19:14:35 10° S 19:18:52 66° WSW 19:23:11 10° NNW
COSMOS 2428 3.7 19:17:57 10° SSE 19:22:22 24° ESE 19:24:51 18° ENE
Nadezhda 3 Rocket 4.1 19:16:04 10° N 19:22:29 89° W 19:28:51 10° S
SJ-6B 4.0 19:22:30 24° E 19:23:07 25° ENE 19:26:26 10° NNE
Cosmos 2154 Rocket 4.3 19:19:31 10° SSW 19:25:44 73° W 19:31:56 10° N
GP-B 3.0 19:22:24 10° SSE 19:26:45 62° E 19:31:09 10° N
Meteor 1-14 Rocket 4.2 19:21:25 10° S 19:27:00 89° ESE 19:32:34 10° N
ASTEX 1 4.2 19:25:01 10° NNE 19:29:10 27° E 19:30:11 25° ESE
Cosmos 2219 Rocket 2.8 19:24:20 10° SSE 19:29:14 32° ESE 19:34:11 10° NE
Meteor 1-11 Rocket 4.3 19:24:48 10° SSE 19:29:54 34° E 19:34:55 10° NNE
MetOp-A 4.4 19:26:56 10° SE 19:32:00 46° ENE 19:37:07 10° N
OBJECT-B 3.1 19:36:26 13° NNE 19:36:26 13° NNE 19:36:58 10° NNE
ARGOS 3.5 19:30:47 10° S 19:36:10 70° WSW 19:41:36 10° NNW
SL-16 R/B 3.7 19:31:31 10° SW 19:36:43 37° WNW 19:41:58 10° N
SJ 16-02 3.6 19:39:09 10° NNE 19:39:34 11° NE 19:39:34 11° NE
CZ-4 R/B 3.6 19:39:06 10° SSW 19:42:22 27° W 19:45:42 10° NW
Okean 1-7 2.9 19:38:14 10° N 19:42:35 64° E 19:45:45 18° SSE
SeaSat 1 2.8 19:38:05 10° NNE 19:42:59 66° WNW 19:47:52 10° SW
Meteor 1-13 Rocket 4.5 19:39:28 10° N 19:45:13 49° ENE 19:48:30 24° SE
USA 234 3.2 19:39:54 11° NE 19:46:12 81° SE 19:52:46 10° SW
H-2A R/B 3.7 19:41:45 10° SSW 19:46:47 38° W 19:51:51 10° NNW
Cosmos 2322 3.6 19:43:28 10° S 19:49:06 63° ESE 19:54:46 10° NNE
BREEZE-M DEB (TANK) 3.9 19:47:56 10° NW 19:50:19 24° NNE 19:51:09 23° NE
CZ-2C R/B 3.0 19:45:13 10° N 19:50:39 66° WNW 19:55:56 10° SSW
SL-4 R/B 3.3 19:51:41 10° NW 19:54:12 21° NNE 19:54:12 21° NNE
Cosmos 1869 Rocket 3.4 19:50:51 10° S 19:55:08 65° E 19:59:30 10° NNE
DMSP B5D2-2 4.0 19:51:14 10° NNE 19:56:29 88° WNW 20:01:41 10° SSW
SL-8 Rocket 3.9 19:51:14 10° S 19:57:28 81° E 20:03:41 10° N
FALCON 9 DEB 3.8 19:56:41 10° NW 19:59:26 45° N 19:59:26 45° N
ATLAS CENTAUR R/B 2.8 19:57:03 10° WSW 20:00:17 31° NW 20:03:10 12° N
Cosmos 1666 3.2 20:03:42 10° SSW 20:07:20 56° W 20:11:02 10° N
Cosmos 2366 rocket 3.9 20:06:12 10° S 20:12:29 85° E 20:18:53 10° N
Cosmos 1339 Rocket 4.5 20:07:04 10° N 20:13:18 83° W 20:19:36 10° S
Cosmos 1844 Rocket 3.0 20:08:56 10° NNW 20:14:26 62° WSW 20:17:54 23° S
Cosmos 1777 Rocket 3.8 20:12:36 10° NNW 20:17:52 78° ENE 20:18:17 72° ESE
Cosmos 2333 4.5 20:14:11 10° SSW 20:19:46 66° WNW 20:25:28 10° NNE
Okean 3 4.2 20:16:31 10° N 20:19:31 45° N 20:19:31 45° N
Ariane Rocket 2.8 20:22:15 73° SSE 20:22:44 85° ENE 20:27:52 10° NNW
Cosmos 2360 Rocket 3.8 20:21:00 10° WSW 20:26:03 33° WNW 20:31:09 10° N
Cosmos 1844 4.1 20:20:49 10° NNW 20:26:30 61° WSW 20:28:56 34° S
Cosmos 2278 Rocket 3.4 20:27:01 10° N 20:30:28 29° NNE 20:30:28 29° NNE
DELTA 2 R/B (1) 4.2 20:27:03 10° SW 20:31:15 42° SSW 20:31:15 42° SSW
Cosmos 2333 Rocket 2.6 20:30:32 10° SW 20:36:08 62° WNW 20:41:49 10° NNE
Cosmos 1727 Rocket 3.8 20:31:15 10° N 20:37:27 82° E 20:37:44 79° SE
Meteor 2-20 4.4 20:32:37 10° N 20:38:13 69° NE 20:38:13 69° NE
Resurs 01 Rocket 3.9 20:50:14 17° N 20:50:14 17° N 20:51:16 10° N
Lacrosse 4 Rocket 3.2 20:48:22 10° SW 20:50:57 30° WSW 20:50:57 30° WSW
COSMOS 2428 3.5 21:00:49 10° SW 21:06:17 48° WNW 21:07:13 44° NNW
Cosmos 2219 Rocket 3.6 21:08:00 10° SW 21:13:05 36° WNW 21:18:15 10° N
SJ 16-02 4.1 21:15:54 10° NNW 21:16:35 14° NNW 21:16:35 14° NNW
USA 234 4.4 21:27:15 32° N 21:28:50 37° NNW 21:34:42 10° W
